User: anonymous   Login
Location: Cimarron National Grasslands
(37.1250°N, 101.7500°W)
Time: 11:06:30
(UTC-05:00)
Language:

Ariane Rocket - Orbit

View from above orbital plane
View from above orbital plane
View from above satellite
View from above satellite

Ground track
Ground track

The orbit data is extracted from the following two-line orbital elements,

1 23561U 95021B   16208.09220811  .00000048  00000-0  31410-4 0  9999
2 23561  98.7723 196.1082 0007719 136.4196 265.7084 14.37752848114395
Epoch (UTC): 26 July 2016 02:12:46
Eccentricity: 0.0007719
inclination: 98.7723°
perigee height: 760 km
apogee height: 771 km
right ascension of ascending node: 196.1082°
argument of perigee: 136.4196°
revolutions per day: 14.37752848
mean anomaly at epoch: 265.7084°
orbit number at epoch: 11439

The dashed part of the orbit path shows where the satellite is in the earth's shadow,  

DLR